Time,TemperatureF,DewpointF,PressureIn,WindDirection,WindDirectionDegrees,WindSpeedMPH,WindSpeedGustMPH,Humidity,HourlyPrecipIn,Conditions,Clouds,dailyrainin,SoftwareType,DateUTC
2013-06-04 00:00:00,53.6,48.3,30.05,NNW,338,0.2,0.2,82,0.00,,,0.00,WUHU216HW,2013-06-04 07:00:00,
2013-06-04 00:05:00,53.6,48.3,30.05,NNW,338,0.2,0.2,82,0.00,,,0.00,WUHU216HW,2013-06-04 07:05:00,
2013-06-04 00:10:00,53.6,48.3,30.05,NNW,338,0.2,0.2,82,0.00,,,0.00,WUHU216HW,2013-06-04 07:10:00,
2013-06-04 00:30:00,52.5,47.2,30.05,NNW,338,0.4,0.4,82,0.00,,,0.00,WUHU216HW,2013-06-04 07:30:00,
2013-06-04 00:35:00,52.5,47.2,30.05,NNW,338,0.4,0.4,82,0.00,,,0.00,WUHU216HW,2013-06-04 07:35:00,
2013-06-04 01:00:00,51.8,47.1,30.05,NNW,338,0.0,0.0,84,0.00,,,0.00,WUHU216HW,2013-06-04 08:00:00,
2013-06-04 01:05:00,51.8,47.1,30.05,NNW,338,0.0,0.0,84,0.00,,,0.00,WUHU216HW,2013-06-04 08:05:00,
2013-06-04 01:30:00,51.4,46.7,30.05,NNW,338,0.4,0.4,84,0.00,,,0.00,WUHU216HW,2013-06-04 08:30:00,
2013-06-04 01:35:00,51.4,46.7,30.05,NNW,338,0.4,0.4,84,0.00,,,0.00,WUHU216HW,2013-06-04 08:35:00,
2013-06-04 02:00:00,51.2,46.5,30.05,North,0,0.2,0.2,84,0.00,,,0.00,WUHU216HW,2013-06-04 09:00:00,
2013-06-04 02:05:00,51.2,46.5,30.05,North,0,0.2,0.2,84,0.00,,,0.00,WUHU216HW,2013-06-04 09:05:00,
2013-06-04 02:30:00,50.3,46.0,30.06,NNW,338,0.2,0.2,85,0.00,,,0.00,WUHU216HW,2013-06-04 09:30:00,
2013-06-04 02:35:00,50.3,46.0,30.06,NNW,338,0.2,0.2,85,0.00,,,0.00,WUHU216HW,2013-06-04 09:35:00,
2013-06-04 03:00:00,50.0,46.0,30.06,NNW,338,0.4,0.4,86,0.00,,,0.00,WUHU216HW,2013-06-04 10:00:00,
2013-06-04 03:05:00,50.0,46.0,30.06,NNW,338,0.4,0.4,86,0.00,,,0.00,WUHU216HW,2013-06-04 10:05:00,
2013-06-04 03:30:00,49.6,45.6,30.06,North,0,0.0,0.0,86,0.00,,,0.00,WUHU216HW,2013-06-04 10:30:00,
2013-06-04 03:35:00,49.6,45.6,30.06,North,0,0.0,0.0,86,0.00,,,0.00,WUHU216HW,2013-06-04 10:35:00,
2013-06-04 04:00:00,49.6,45.6,30.06,North,0,0.0,0.0,86,0.00,,,0.00,WUHU216HW,2013-06-04 11:00:00,
2013-06-04 04:05:00,49.6,45.6,30.06,North,0,0.0,0.0,86,0.00,,,0.00,WUHU216HW,2013-06-04 11:05:00,
2013-06-04 04:30:00,48.7,44.7,30.06,North,0,0.4,0.4,86,0.00,,,0.00,WUHU216HW,2013-06-04 11:30:00,
2013-06-04 04:35:00,48.7,44.7,30.06,North,0,0.4,0.4,86,0.00,,,0.00,WUHU216HW,2013-06-04 11:35:00,
2013-06-04 05:00:00,48.7,45.0,30.06,North,0,0.2,0.2,87,0.00,,,0.00,WUHU216HW,2013-06-04 12:00:00,
2013-06-04 05:05:00,48.7,45.0,30.06,North,0,0.2,0.2,87,0.00,,,0.00,WUHU216HW,2013-06-04 12:05:00,
2013-06-04 05:30:00,48.5,44.5,30.06,NNW,338,0.0,0.0,86,0.00,,,0.00,WUHU216HW,2013-06-04 12:30:00,
2013-06-04 05:35:00,48.5,44.5,30.06,NNW,338,0.0,0.0,86,0.00,,,0.00,WUHU216HW,2013-06-04 12:35:00,
2013-06-04 06:00:00,48.4,44.7,30.06,NNW,338,0.0,0.0,87,0.00,,,0.00,WUHU216HW,2013-06-04 13:00:00,
2013-06-04 06:05:00,48.4,44.7,30.06,NNW,338,0.0,0.0,87,0.00,,,0.00,WUHU216HW,2013-06-04 13:05:00,
2013-06-04 06:30:00,48.7,45.0,30.06,NNW,338,0.2,0.2,87,0.00,,,0.00,WUHU216HW,2013-06-04 13:30:00,
2013-06-04 06:35:00,48.7,45.0,30.06,NNW,338,0.2,0.2,87,0.00,,,0.00,WUHU216HW,2013-06-04 13:35:00,
2013-06-04 07:00:00,49.4,46.3,30.06,North,0,0.0,0.0,89,0.00,,,0.00,WUHU216HW,2013-06-04 14:00:00,
2013-06-04 07:05:00,49.4,46.3,30.06,North,0,0.0,0.0,89,0.00,,,0.00,WUHU216HW,2013-06-04 14:05:00,
2013-06-04 07:30:00,50.5,47.3,30.07,ESE,113,0.7,0.7,89,0.00,,,0.00,WUHU216HW,2013-06-04 14:30:00,
2013-06-04 07:35:00,50.5,47.3,30.07,ESE,113,0.7,0.7,89,0.00,,,0.00,WUHU216HW,2013-06-04 14:35:00,
2013-06-04 08:00:00,52.1,49.2,30.07,SSE,158,0.4,0.4,90,0.00,,,0.00,WUHU216HW,2013-06-04 15:00:00,
2013-06-04 08:05:00,52.1,49.2,30.07,SSE,158,0.4,0.4,90,0.00,,,0.00,WUHU216HW,2013-06-04 15:05:00,
2013-06-04 08:30:00,54.5,50.4,30.07,SW,225,1.1,1.1,86,0.00,,,0.00,WUHU216HW,2013-06-04 15:30:00,
2013-06-04 08:35:00,54.5,50.4,30.07,SW,225,1.1,1.1,86,0.00,,,0.00,WUHU216HW,2013-06-04 15:35:00,
2013-06-04 09:00:00,56.8,52.3,30.08,SSW,203,2.2,2.2,85,0.00,,,0.00,WUHU216HW,2013-06-04 16:00:00,
2013-06-04 09:05:00,56.8,52.3,30.08,SSW,203,2.2,2.2,85,0.00,,,0.00,WUHU216HW,2013-06-04 16:05:00,
2013-06-04 09:30:00,58.8,53.0,30.07,ESE,113,1.3,1.3,81,0.00,,,0.00,WUHU216HW,2013-06-04 16:30:00,
2013-06-04 09:35:00,58.8,53.0,30.07,ESE,113,1.3,1.3,81,0.00,,,0.00,WUHU216HW,2013-06-04 16:35:00,
2013-06-04 10:00:00,61.1,54.3,30.07,South,180,3.4,3.4,78,0.00,,,0.00,WUHU216HW,2013-06-04 17:00:00,
2013-06-04 10:05:00,61.1,54.3,30.07,South,180,3.4,3.4,78,0.00,,,0.00,WUHU216HW,2013-06-04 17:05:00,
2013-06-04 10:30:00,62.9,55.0,30.07,South,180,2.2,2.2,75,0.00,,,0.00,WUHU216HW,2013-06-04 17:30:00,
2013-06-04 10:35:00,62.9,55.0,30.07,South,180,2.2,2.2,75,0.00,,,0.00,WUHU216HW,2013-06-04 17:35:00,
2013-06-04 11:00:00,64.7,55.6,30.06,NNE,23,1.1,1.1,72,0.00,,,0.00,WUHU216HW,2013-06-04 18:00:00,
2013-06-04 11:05:00,64.7,55.6,30.06,NNE,23,1.1,1.1,72,0.00,,,0.00,WUHU216HW,2013-06-04 18:05:00,
2013-06-04 11:30:00,66.5,55.8,30.06,SW,225,1.1,1.1,68,0.00,,,0.00,WUHU216HW,2013-06-04 18:30:00,
2013-06-04 11:35:00,66.5,55.8,30.06,SW,225,1.1,1.1,68,0.00,,,0.00,WUHU216HW,2013-06-04 18:35:00,
2013-06-04 12:00:00,67.8,56.2,30.06,WNW,293,1.8,1.8,66,0.00,,,0.00,WUHU216HW,2013-06-04 19:00:00,
2013-06-04 12:05:00,67.8,56.2,30.06,WNW,293,1.8,1.8,66,0.00,,,0.00,WUHU216HW,2013-06-04 19:05:00,
2013-06-04 12:30:00,68.7,55.8,30.05,SW,225,4.0,4.0,63,0.00,,,0.00,WUHU216HW,2013-06-04 19:30:00,
2013-06-04 12:35:00,68.7,55.8,30.05,SW,225,4.0,4.0,63,0.00,,,0.00,WUHU216HW,2013-06-04 19:35:00,
2013-06-04 13:00:00,69.4,57.3,30.04,SW,225,4.0,4.0,65,0.00,,,0.00,WUHU216HW,2013-06-04 20:00:00,
2013-06-04 13:05:00,69.4,57.3,30.04,SW,225,4.0,4.0,65,0.00,,,0.00,WUHU216HW,2013-06-04 20:05:00,
2013-06-04 13:30:00,70.1,58.0,30.04,South,180,2.9,2.9,65,0.00,,,0.00,WUHU216HW,2013-06-04 20:30:00,
2013-06-04 13:35:00,70.1,58.0,30.04,South,180,2.9,2.9,65,0.00,,,0.00,WUHU216HW,2013-06-04 20:35:00,
2013-06-04 14:00:00,71.0,58.0,30.03,SSW,203,5.6,5.6,63,0.00,,,0.00,WUHU216HW,2013-06-04 21:00:00,
2013-06-04 14:05:00,71.0,58.0,30.03,SSW,203,5.6,5.6,63,0.00,,,0.00,WUHU216HW,2013-06-04 21:05:00,
2013-06-04 14:30:00,71.0,57.1,30.03,SW,225,1.3,1.3,61,0.00,,,0.00,WUHU216HW,2013-06-04 21:30:00,
2013-06-04 14:35:00,71.0,57.1,30.03,SW,225,1.3,1.3,61,0.00,,,0.00,WUHU216HW,2013-06-04 21:35:00,
2013-06-04 15:00:00,71.2,57.3,30.02,SSW,203,2.0,2.0,61,0.00,,,0.00,WUHU216HW,2013-06-04 22:00:00,
2013-06-04 15:05:00,71.2,57.3,30.02,SSW,203,2.0,2.0,61,0.00,,,0.00,WUHU216HW,2013-06-04 22:05:00,
2013-06-04 15:30:00,71.6,57.2,30.02,South,180,2.0,2.0,60,0.00,,,0.00,WUHU216HW,2013-06-04 22:30:00,
2013-06-04 15:35:00,71.6,57.2,30.02,South,180,2.0,2.0,60,0.00,,,0.00,WUHU216HW,2013-06-04 22:35:00,
2013-06-04 16:00:00,71.9,57.0,30.01,SW,225,2.9,2.9,59,0.00,,,0.00,WUHU216HW,2013-06-04 23:00:00,
2013-06-04 16:05:00,71.9,57.0,30.01,SW,225,2.9,2.9,59,0.00,,,0.00,WUHU216HW,2013-06-04 23:05:00,
2013-06-04 16:30:00,72.7,56.8,30.01,SW,225,2.5,2.5,57,0.00,,,0.00,WUHU216HW,2013-06-04 23:30:00,
2013-06-04 16:35:00,72.7,56.8,30.01,SW,225,2.5,2.5,57,0.00,,,0.00,WUHU216HW,2013-06-04 23:35:00,
2013-06-04 17:00:00,73.4,56.9,30.00,SW,225,2.0,2.0,56,0.00,,,0.00,WUHU216HW,2013-06-05 00:00:00,
2013-06-04 17:05:00,73.4,56.9,30.00,SW,225,2.0,2.0,56,0.00,,,0.00,WUHU216HW,2013-06-05 00:05:00,
2013-06-04 17:30:00,73.0,57.0,29.99,SW,225,2.0,2.0,57,0.00,,,0.00,WUHU216HW,2013-06-05 00:30:00,
2013-06-04 17:35:00,73.0,57.0,29.99,SW,225,2.0,2.0,57,0.00,,,0.00,WUHU216HW,2013-06-05 00:35:00,
2013-06-04 18:00:00,72.5,57.1,29.99,SSW,203,1.3,1.3,58,0.00,,,0.00,WUHU216HW,2013-06-05 01:00:00,
2013-06-04 18:05:00,72.5,57.1,29.99,SSW,203,1.3,1.3,58,0.00,,,0.00,WUHU216HW,2013-06-05 01:05:00,
2013-06-04 18:30:00,71.8,56.9,29.98,NNW,338,0.0,0.0,59,0.00,,,0.00,WUHU216HW,2013-06-05 01:30:00,
2013-06-04 18:35:00,71.8,56.9,29.98,NNW,338,0.0,0.0,59,0.00,,,0.00,WUHU216HW,2013-06-05 01:35:00,
2013-06-04 19:00:00,70.7,56.8,29.98,NW,315,0.0,0.0,61,0.00,,,0.00,WUHU216HW,2013-06-05 02:00:00,
2013-06-04 19:05:00,70.7,56.8,29.98,NW,315,0.0,0.0,61,0.00,,,0.00,WUHU216HW,2013-06-05 02:05:00,
2013-06-04 19:30:00,69.6,56.2,29.98,East,90,0.4,0.4,62,0.00,,,0.00,WUHU216HW,2013-06-05 02:30:00,
2013-06-04 19:35:00,69.6,56.2,29.98,East,90,0.4,0.4,62,0.00,,,0.00,WUHU216HW,2013-06-05 02:35:00,
2013-06-04 20:00:00,68.3,55.4,29.98,NNW,338,0.0,0.0,63,0.00,,,0.00,WUHU216HW,2013-06-05 03:00:00,
2013-06-04 20:05:00,68.3,55.4,29.98,NNW,338,0.0,0.0,63,0.00,,,0.00,WUHU216HW,2013-06-05 03:05:00,
2013-06-04 20:30:00,67.3,54.9,29.98,North,0,0.0,0.0,64,0.00,,,0.00,WUHU216HW,2013-06-05 03:30:00,
2013-06-04 20:35:00,67.3,54.9,29.98,North,0,0.0,0.0,64,0.00,,,0.00,WUHU216HW,2013-06-05 03:35:00,
2013-06-04 21:00:00,65.8,54.3,29.98,NNW,338,0.0,0.0,66,0.00,,,0.00,WUHU216HW,2013-06-05 04:00:00,
2013-06-04 21:01:00,65.8,54.3,29.98,NNW,338,0.0,0.0,66,0.00,,,0.00,WUHU216HW,2013-06-05 04:01:00,
2013-06-04 21:02:00,65.8,54.3,29.98,NNW,338,0.0,0.0,66,0.00,,,0.00,WUHU216HW,2013-06-05 04:02:00,
2013-06-04 21:07:00,65.8,54.3,29.98,NNW,338,0.0,0.0,66,0.00,,,0.00,WUHU216HW,2013-06-05 04:07:00,
2013-06-04 21:30:00,64.2,54.0,30.00,NNW,338,0.0,0.0,69,0.00,,,0.00,WUHU216HW,2013-06-05 04:30:00,
2013-06-04 21:35:00,64.2,54.0,30.00,NNW,338,0.0,0.0,69,0.00,,,0.00,WUHU216HW,2013-06-05 04:35:00,
2013-06-04 22:00:00,62.9,53.1,30.01,East,90,0.4,0.4,70,0.00,,,0.00,WUHU216HW,2013-06-05 05:00:00,
2013-06-04 22:05:00,62.9,53.1,30.01,East,90,0.4,0.4,70,0.00,,,0.00,WUHU216HW,2013-06-05 05:05:00,
2013-06-04 22:30:00,61.1,51.0,30.01,NNW,338,0.0,0.0,69,0.00,,,0.00,WUHU216HW,2013-06-05 05:30:00,
2013-06-04 22:35:00,61.1,51.0,30.01,NNW,338,0.0,0.0,69,0.00,,,0.00,WUHU216HW,2013-06-05 05:35:00,
2013-06-04 23:00:00,58.8,48.8,30.01,North,0,0.4,0.4,69,0.00,,,0.00,WUHU216HW,2013-06-05 06:00:00,
2013-06-04 23:05:00,58.8,48.8,30.01,North,0,0.4,0.4,69,0.00,,,0.00,WUHU216HW,2013-06-05 06:05:00,
2013-06-04 23:30:00,57.4,48.6,30.01,NNW,338,0.4,0.4,72,0.00,,,0.00,WUHU216HW,2013-06-05 06:30:00,
2013-06-04 23:35:00,57.4,48.6,30.01,NNW,338,0.4,0.4,72,0.00,,,0.00,WUHU216HW,2013-06-05 06:35:00,